FW6886 Weather Reports


time (UTC)temp
C
wind
direction
speed
KPH
gust
KPH
rain 1hr
cm
rain 24hr
cm
rain mn
cm
humidity
%
barometer
mb
20260503003001 16 207 3.2 9.7 0.00 0.00 0.00 37 1010.9
20260503001604 16 191 4.8 9.7 0.00 0.00 0.00 36 1011.1
20260503000108 16 244 3.2 11.3 0.00 0.00 0.00 36 1011.3
20260502234614 16 248 1.6 14.5 0.00 0.00 0.00 35 1011.5
20260502233109 16 267 4.8 19.3 0.00 0.00 0.00 35 1011.6
20260502231606 16 249 6.4 16.1 0.00 0.00 0.00 36 1011.7
20260502230052 16 240 3.2 19.3 0.00 0.00 0.00 34 1011.8
20260502224550 17 259 4.8 14.5 0.00 0.00 0.00 34 1012.1
20260502223051 17 242 8.0 19.3 0.00 0.00 0.00 34 1012.2
20260502221559 16 255 9.7 24.1 0.00 0.00 0.00 34 1012.4
20260502220046 16 205 11.3 29.0 0.00 0.00 0.00 34 1012.6
20260502214545 17 299 9.7 20.9 0.00 0.00 0.00 33 1012.7
20260502213050 17 246 3.2 16.1 0.00 0.00 0.00 33 1013.0
20260502211545 17 247 12.9 25.7 0.00 0.00 0.00 33 1013.2
20260502210036 16 242 9.7 24.1 0.00 0.00 0.00 34 1013.4
20260502204539 16 275 9.7 22.5 0.00 0.00 0.00 32 1013.8
20260502203034 16 295 8.0 20.9 0.00 0.00 0.00 34 1014.0
20260502201530 16 214 9.7 22.5 0.00 0.00 0.00 34 1014.2
20260502200028 16 194 6.4 16.1 0.00 0.00 0.00 35 1014.5
20260502194525 17 212 8.0 22.5 0.00 0.00 0.00 32 1014.8
20260502193024 16 259 6.4 17.7 0.00 0.00 0.00 34 1015.0
20260502191523 16 242 9.7 19.3 0.00 0.00 0.00 32 1015.2
20260502190018 15 247 4.8 20.9 0.00 0.00 0.00 37 1015.5
20260502184516 15 246 9.7 29.0 0.00 0.00 0.00 33 1015.8
20260502183014 16 268 11.3 20.9 0.00 0.00 0.00 32 1016.1
20260502181512 16 261 9.7 19.3 0.00 0.00 0.00 32 1016.2
20260502163055 14 340 6.4 20.9 0.00 0.00 0.00 33 1017.6
20260502161553 13 322 9.7 24.1 0.00 0.00 0.00 35 1017.8
20260502151529 11 248 11.3 14.5 0.00 0.00 0.00 44 1018.3
20260502123058 4 301 3.2 6.4 0.00 0.00 0.00 63 1018.8
20260502121601 3 259 1.6 8.0 0.00 0.00 0.00 64 1018.7
20260502120111 3 267 1.6 9.7 0.00 0.00 0.00 64 1018.7
20260502114602 3 250 3.2 11.3 0.00 0.00 0.00 65 1018.5
20260502113053 3 250 4.8 11.3 0.00 0.00 0.00 64 1018.5
20260502111559 3 250 3.2 12.9 0.00 0.00 0.00 63 1018.4
20260502110051 3 244 3.2 11.3 0.00 0.00 0.00 63 1018.3
20260502104553 3 249 4.8 11.3 0.00 0.00 0.00 62 1018.3
20260502103048 3 250 4.8 11.3 0.00 0.00 0.00 61 1018.4
20260502101548 3 246 3.2 8.0 0.00 0.00 0.00 60 1018.5
20260502070025 5 245 3.2 11.3 0.00 0.00 0.00 53 1018.7
20260502064521 5 247 4.8 8.0 0.00 0.00 0.00 53 1018.8
20260502063018 5 241 3.2 8.0 0.00 0.00 0.00 53 1018.9
20260502061515 5 233 4.8 8.0 0.00 0.00 0.00 51 1018.9
20260502060011 5 243 4.8 8.0 0.00 0.00 0.00 49 1018.8
20260502054517 5 239 4.8 11.3 0.00 0.00 0.00 48 1018.8
20260502053009 5 256 4.8 9.7 0.00 0.00 0.00 48 1018.8
20260502051508 6 229 3.2 8.0 0.00 0.00 0.00 46 1018.7
20260502050003 6 211 1.6 6.4 0.00 0.00 0.00 45 1018.8
20260502044502 6 211 1.6 6.4 0.00 0.00 0.00 45 1018.7
20260502043002 5 227 1.6 4.8 0.00 0.00 0.00 45 1018.8
20260502041501 5 227 3.2 6.4 0.00 0.00 0.00 45 1018.7
20260502040101 5 355 1.6 3.2 0.00 0.00 0.00 45 1018.8
20260502034600 5 5 0.0 4.8 0.00 0.00 0.00 47 1018.8
20260502033059 5 5 1.6 4.8 0.00 0.00 0.00 46 1018.8
20260502031611 5 42 1.6 4.8 0.00 0.00 0.00 46 1018.8
20260502030057 5 43 0.0 3.2 0.00 0.00 0.00 48 1018.8
20260502024558 5 43 1.6 3.2 0.00 0.00 0.00 48 1018.7
20260502023056 5 43 0.0 0.0 0.00 0.00 0.00 47 1018.7
20260502021556 6 43 0.0 0.0 0.00 0.00 0.00 45 1018.7
20260502020106 6 43 0.0 0.0 0.00 0.00 0.00 44 1018.6
20260502014555 7 43 0.0 0.0 0.00 0.00 0.00 43 1018.5
20260502013056 8 43 0.0 0.0 0.00 0.00 0.00 41 1018.3
20260502011554 8 43 0.0 1.6 0.00 0.00 0.00 38 1018.3
20260502010056 9 43 0.0 6.4 0.00 0.00 0.00 37 1018.2
20260502004652 10 5 0.0 6.4 0.00 0.00 0.00 36 1018.1